This is the latest recevied weather packets stored in our database for station/object CW79215. If no packets are shown the sender has not sent any weather packets the latest 10 day(s).
| Time | Temp. | Humidity | Pressure | Rain* | Wind** | Luminosity | Snow |
|---|---|---|---|---|---|---|---|
| 1788037525 | 18.33° C | 65% | 1026 hPa | - | - | - | - |
| 1788036625 | 18.89° C | 64% | 1026.1 hPa | - | - | - | - |
| 1788035731 | 18.89° C | 66% | 1026.1 hPa | - | - | - | - |
| 1788034831 | 18.89° C | 65% | 1026 hPa | - | - | - | - |
| 1788033931 | 18.89° C | 64% | 1026.1 hPa | - | - | - | - |
| 1788033031 | 18.89° C | 64% | 1026 hPa | - | - | - | - |
| 1788032131 | 18.89° C | 61% | 1026.1 hPa | - | - | - | - |
| 1788031231 | 18.89° C | 63% | 1026 hPa | - | - | - | - |
| 1788030331 | 18.89° C | 64% | 1026 hPa | - | - | - | - |
| 1788029431 | 20.56° C | 50% | 1025.8 hPa | - | - | - | - |
| 1788028531 | 20.56° C | 49% | 1025.7 hPa | - | - | - | - |
| 1788027631 | 20.56° C | 48% | 1025.6 hPa | - | - | - | - |
| 1788026730 | 21.11° C | 46% | 1025.6 hPa | - | - | - | - |
| 1788025830 | 21.67° C | 43% | 1025.3 hPa | - | - | - | - |
| 1788024930 | 22.22° C | 41% | 1025.4 hPa | - | - | - | - |
| 1788024030 | 22.78° C | 40% | 1025.4 hPa | - | - | - | - |
| 1788023130 | 22.78° C | 40% | 1025.5 hPa | - | - | - | - |
| 1788022230 | 23.33° C | 39% | 1025.4 hPa | - | - | - | - |
| 1788021330 | 23.33° C | 39% | 1025.4 hPa | - | - | - | - |
| 1788020425 | 23.89° C | 37% | 1025.4 hPa | - | - | - | - |
| 1788019525 | 24.44° C | 38% | 1025.4 hPa | - | - | - | - |
| 1788018625 | 24.44° C | 38% | 1025.4 hPa | - | - | - | - |
| 1788017725 | 23.89° C | 41% | 1025.6 hPa | - | - | - | - |
| 1788016825 | 23.89° C | 40% | 1025.7 hPa | - | - | - | - |
| 1788015925 | 23.89° C | 39% | 1025.7 hPa | - | - | - | - |
* Rain since midnight (hover to see other rain measurements)
** Current wind speed in m/s (hover to see current wind gust speed)